Location: ???????????
(54.6970°N, 39.1477°E)
Time: 14:30:54
(UTC+00:00)

Cosmos 1842 - Pass Details

Date: 19 May 2025
Orbit: 439 x 450 km, 82.5° (Epoch: 21 June)

Event Time Altitude Azimuth Distance (km) Brightness Sun altitude
Exits shadow 20:32:02 28° 145° (SE) 888 3.9 -14.6°
Maximum altitude 20:33:22 41° 95° (E) 669 3.6 -14.7°
Drops below altitude 10° 20:36:41 10° 24° (NNE) 1,603 6.6 -14.8°
Sets 20:38:50 0° 17° (NNE) 2,483 7.9 -14.8°
